This demonstration page uses our WeatherBlox Daily Observations layout. Learn more.

Left ArrowRight Arrow

Hourly Observations for April 7, 2020

Temp ( °F °C ) Dew Point ( °F °C ) Humidity (%) Winds ( mph kmh ) Pressure ( in mb ) Visibility ( mi km ) Precip ( " mm )
12:54 am 00:54 Clear 63 17.2 56 13.3 78 78 SSW 10 17 29.72 1006 10 16.0934 0 0
1:54 am 01:54 Clear 60 15.6 55 12.8 84 84 SSW 8 13 29.72 1006 10 16.0934 0 0
2:54 am 02:54 Clear 58 14.4 54 12.2 87 87 SE 3 6 29.71 1006 9 14.48406 0 0
3:54 am 03:54 Clear 56 13.3 53 11.7 90 90 SSE 5 7 29.69 1005 8 12.87472 0 0
4:54 am 04:54 Clear with Mist and Fog 55 12.8 54 12.2 96 96 S 5 7 29.68 1005 6 9.65604 0 0
5:38 am 05:38 Clear with Mist and Fog 55 12.8 54 12.2 96 96 S 5 7 29.7 1006 2 3.21868 0 0
5:54 am 05:54 Clear with Mist and Fog 53 11.7 52 11.1 96 96 S 5 7 29.68 1005 1.75 2.816345 0 0
6:02 am 06:02 Mostly Clear 52 11.1 51 10.6 97 97 S 6 9 29.71 1006 10 16.0934 0 0
6:13 am 06:13 Partly Cloudy 51 10.6 50 10 96 96 S 3 6 29.71 1006 10 16.0934 0 0
6:44 am 06:44 Mostly Cloudy with Fog 51 10.6 49 9.4 92 92 Calm 29.73 1007 0.25 0.402335 0 0
6:54 am 06:54 Mostly Cloudy with Fog 52 11.1 51 10.6 97 97 Calm 29.71 1006 0.25 0.402335 0 0
7:05 am 07:05 Mostly Cloudy with Fog 52 11.1 51 10.6 97 97 NW 7 11 29.75 1007 0.25 0.402335 0 0
7:27 am 07:27 Cloudy with Fog 53 11.7 52 11.1 96 96 NW 5 7 29.75 1008 0.5 0.80467 0 0
7:38 am 07:38 Cloudy with Fog 53 11.7 53 11.7 100 100 Calm 29.76 1008 0.25 0.402335 0 0
7:54 am 07:54 Cloudy with Fog 54 12.2 53 11.7 97 97 SSW 6 9 29.73 1007 0.5 0.80467 0 0
8:02 am 08:02 Cloudy with Fog 54 12.2 53 11.7 97 97 S 3 6 29.74 1007 0.25 0.402335 0 0
8:18 am 08:18 Mostly Cloudy with Fog 54 12.2 53 11.7 97 97 S 5 7 29.74 1007 0.25 0.402335 0 0
8:54 am 08:54 Mostly Cloudy with Fog 55 12.8 54 12.2 96 96 SW 7 11 29.73 1007 0.25 0.402335 0 0
9:06 am 09:06 Mostly Cloudy with Fog 56 13.3 55 12.8 97 97 WSW 5 7 29.75 1007 0.25 0.402335 0 0
9:29 am 09:29 Cloudy with Mist and Fog 56 13.3 55 12.8 97 97 WSW 6 9 29.75 1007 0.75 1.207005 0 0
9:35 am 09:35 Cloudy with Mist and Fog 56 13.3 55 12.8 97 97 WSW 8 13 29.75 1007 1 1.60934 0 0
9:45 am 09:45 Cloudy with Mist and Fog 57 13.9 56 13.3 96 96 SW 7 11 29.75 1008 3 4.82802 0 0
9:54 am 09:54 Cloudy with Mist and Fog 57 13.9 55 12.8 93 93 SW 7 11 29.74 1007 4 6.43736 0 0
10:23 am 10:23 Partly Cloudy 59 15 55 12.8 87 87 WSW 6 9 29.76 1008 10 16.0934 0 0
10:54 am 10:54 Sunny 66 18.9 56 13.3 70 70 SSE 3 6 29.75 1007 10 16.0934 0 0
11:54 am 11:54 Sunny 77 25 51 10.6 40 40 Calm 29.73 1007 10 16.0934 0 0
12:54 pm 12:54 Sunny 85 29.4 36 2.2 17 17 NNW 13 20 29.7 1006 10 16.0934 0 0
1:54 pm 13:54 Sunny 87 30.6 30 -1.1 13 13 WNW 16 26 29.68 1005 10 16.0934 0 0
2:54 pm 14:54 Sunny 87 30.6 30 -1.1 13 13 NW 20 31 29.68 1005 10 16.0934 0 0
3:54 pm 15:54 Sunny 87 30.6 31 -0.6 13 13 NW 17 28 29.66 1005 10 16.0934 0 0
4:54 pm 16:54 Sunny 87 30.6 30 -1.1 13 13 WNW 15 24 29.66 1004 10 16.0934 0 0
5:54 pm 17:54 Sunny 86 30 30 -1.1 13 13 NW 12 19 29.66 1004 10 16.0934 0 0
6:54 pm 18:54 Sunny 84 28.9 30 -1.1 14 14 NW 9 15 29.67 1005 10 16.0934 0 0
7:54 pm 19:54 Sunny 78 25.6 30 -1.1 17 17 WNW 10 17 29.7 1006 10 16.0934 0 0
8:54 pm 20:54 Clear 74 23.3 30 -1.1 20 20 WNW 8 13 29.72 1007 10 16.0934 0 0
9:54 pm 21:54 Clear 59 15 34 1.1 39 39 N 3 6 29.74 1007 10 16.0934 0 0
10:54 pm 22:54 Clear 56 13.3 35 1.7 46 46 Calm 29.75 1007 10 16.0934 0 0
11:54 pm 23:54 Clear 50 10 36 2.2 59 59 N 3 6 29.74 1007 10 16.0934 0 0

Powered by AerisWeather